684  
ASUS43 KDTX 281310  
RWRMI  
MICHIGAN HOURLY REGIONAL WEATHER ROUNDUP  
NATIONAL WEATHER SERVICE DETROIT/PONTIAC MI  
900 AM EDT TUE MAR 28 2017  
 
NOTE: "FAIR" INDICATES FEW OR NO CLOUDS BELOW 12,000 FEET WITH NO  
SIGNIFICANT WEATHER AND/OR TO VISIBILITY
.  
 
MIZ047>049-052>055-059>063-066>070-074>076-081>083-281400-  
SOUTHEAST LOWER MICHIGAN  
 
CITY SKY/WX TMP DP RH WIND PRES REMARKS
 
ADRIAN CLOUDY 45 43 93 NE12 30.00R  
ANN ARBOR CLOUDY 43 40 89 N12 30.01R  
BAD AXE FOG 36 36 100 N6 30.06R VSB 1/2 WCI 31  
CARO CLOUDY 37 37 98 N5 30.04R FOG WCI 34  
DETROIT CITY CLOUDY 42 39 89 N9 30.01R  
DETROIT CLOUDY 44 39 82 N9 30.02R  
FLINT CLOUDY 40 38 93 N9 30.04R WCI 34  
GROSSE ILE CLOUDY 43 39 85 N7 30.00R  
HILLSDALE CLOUDY 43 39 87 N5 30.00R  
HOWELL CLOUDY 40 38 94 N3 30.02R FOG  
 
CITY SKY/WX TMP DP RH WIND PRES REMARKS
 
JACKSON CLOUDY 43 39 86 NE9 30.02R  
LAMBERTVILLE CLOUDY 46 42 88 NE7 30.00R FOG  
LANSING CLOUDY 40 38 93 N8 30.05R FOG WCI 34  
LAPEER CLOUDY 39 38 96 N7 30.03R WCI 34  
MASON CLOUDY 40 40 99 N7 30.03R FOG  
MONROE CLOUDY 44 41 90 N8 30.00R  
MT. CLEMENS CLOUDY 41 41 99 N12 30.00R  
PONTIAC CLOUDY 40 37 89 N8 30.00R FOG WCI 34  
PORT HOPE N/A 36 35 96 N10 30.04R WCI 28  
PORT HURON CLOUDY 37 36 93 N7 30.02R WCI 32  
TRI CITIES CLOUDY 39 39 100 NE9 30.07R FOG WCI 33  
MIDLAND CLOUDY 39 37 93 N5 30.06R  
TROY CLOUDY 42 38 83 N8 30.04R  
SAGINAW HB CLOUDY 37 36 93 N12 30.06R FOG WCI 30  

 
MIZ043>046-050>051-056>058-064>065-071>073-077>080-281400-  
SOUTHWEST LOWER MICHIGAN  
 
CITY SKY/WX TMP DP RH WIND PRES REMARKS
 
BATTLE CREEK CLOUDY 43 41 93 NE10 30.03R  
BENTON HARBOR CLOUDY 38 37 97 VRB3 30.06R FOG  
BIG RAPIDS CLOUDY 37 36 95 N5 30.06R FOG WCI 33  
COLDWATER CLOUDY 45 41 88 N7 30.01R  
FREMONT CLOUDY 38 36 92 NE5 30.06R WCI 35  
HOLLAND CLOUDY 42 37 82 N8 30.06R  
GRAND RAPIDS CLOUDY 40 39 97 N7 30.05R  
IONIA CLOUDY 38 38 97 N7 30.05R FOG WCI 33  
KALAMAZOO CLOUDY 44 40 85 N6 30.03R  
LUDINGTON CLOUDY 37 35 94 NE6 30.09R WCI 32  
MARSHALL DRIZZLE 43 42 98 N3 30.02R  
MOUNT PLEASANT CLOUDY 38 36 92 N6 30.06R WCI 34  
MUSKEGON CLOUDY 41 37 86 N7 30.07R  
SOUTH HAVEN CLOUDY 38 38 99 N6 30.05R FOG WCI 34  

 
MIZ016>042-281400-  
NORTHERN LOWER MICHIGAN  
 
CITY SKY/WX TMP DP RH WIND PRES REMARKS
 
ALPENA CLOUDY 38 36 92 N7 30.10R WCI 33  
BEAVER ISLAND CLOUDY 35 35 100 N3 30.13R FOG  
BELLAIRE CLOUDY 34 33 95 CALM 30.12R FOG  
CADILLAC FOG 34 33 96 NE8 30.06R VSB 3/4 WCI 27  
CHARLEVOIX CLOUDY 35 35 100 N5 30.14R FOG WCI 30  
FRANKFORT CLOUDY 35 33 92 CALM 30.11R FOG  
GAYLORD FOG 36 32 85 NE6 30.07R VSB 1 WCI 31  
GRAYLING CLOUDY 36 34 93 N5 30.08S FOG WCI 32  
HARBOR SPRINGS CLOUDY 35 35 99 NE5 30.11S FOG WCI 31  
HOUGHTON LAKE CLOUDY 36 34 92 NE8 30.07R WCI 30  
MANISTEE CLOUDY 37 35 92 NE9 30.09R WCI 30  
OSCODA CLOUDY 38 37 95 N8G16 30.07R FOG WCI 32  
PELLSTON CLOUDY 36 33 89 NE6 30.12R WCI 31  
ROGERS CITY CLOUDY 37 33 87 N5 30.12R WCI 33  
TRAVERSE CITY FOG 35 34 96 N5 30.11R VSB 3/4 WCI 31  

 
MIZ007>008-015-281400-  
EASTERN UPPER MICHIGAN  
 
CITY SKY/WX TMP DP RH WIND PRES REMARKS
 
KINROSS FOG 34 32 93 N6 30.13R VSB 1 WCI 29  
MACKINAC ISLAN PTSUNNY 34 34 100 N5 30.11R WCI 30  
NEWBERRY FOG 31 30 97 N5 30.11S VSB 1/2 WCI 26  
S. S. MARIE CLOUDY 35 31 85 CALM 30.11R  
MUNISING N/A 30 30 100 CALM 30.13R  

 
MIZ004>006-011>014-085-281400-  
CENTRAL UPPER MICHIGAN  
 
CITY SKY/WX TMP DP RH WIND PRES REMARKS
 
MANISTIQUE FOG 30 30 100 CALM 30.13R VSB 1/2  
ESCANABA FOG 29 29 100 E7 30.14R VSB 1/2 WCI 22  
MENOMINEE N/A N/A N/A N/A MISG N/A  
SAWYER-GWINN SUNNY 28 28 100 CALM 30.11R  

 
MIZ001>003-009>011-084-281400-  
WESTERN UPPER MICHIGAN  
 
CITY SKY/WX TMP DP RH WIND PRES REMARKS
 
IRON MOUNTAIN SUNNY 29 26 89 NW3 30.10R  
HOUGHTON CLOUDY 35 29 78 NW9 30.11R WCI 28  
COPPER HARBOR N/A 37 31 78 CALM 30.11R  
IRONWOOD SUNNY 27 26 96 E3 30.14S  

 
 
ABBREVIATIONS USED IN REMARKS  
TC - TEMPERATURE IN CELSIUS  
WCI - WIND CHILL INDEX  
HX - HEAT INDEX  
VSB - VISIBILITY  
 
 
 
CLICK HERE TO GO TO PREVIOUS BULLETINS.

The Nexlab MI Page Main Text Page